H1 CPF 2 NER 2024 8 16 9 229 01 glonass127 H2 1106403 9127 37869 2024 8 16 0 0 0 2024 8 19 23 45 0 900 1 1 0 0 0 1 H9 10 0 60538 0.00000 0 15887604.518 -4551082.160 -19361062.013 10 0 60538 900.00000 0 14258133.601 -2653866.858 -20918666.541 10 0 60538 1800.00000 0 12676903.205 -505120.641 -22067445.965 10 0 60538 2700.00000 0 11198319.439 1852435.852 -22784968.849 10 0 60538 3600.00000 0 9868982.380 4366264.086 -23057282.804 10 0 60538 4500.00000 0 8725804.325 6975975.933 -22879185.706 10 0 60538 5400.00000 0 7794559.673 9615640.713 -22254319.446 10 0 60538 6300.00000 0 7088927.140 12216333.223 -21195085.029 10 0 60538 7200.00000 0 6610063.464 14708814.806 -19722381.816 10 0 60538 8100.00000 0 6346724.600 17026234.206 -17865177.346 10 0 60538 9000.00000 0 6275926.697 19106734.463 -15659917.825 10 0 60538 9900.00000 0 6364116.017 20895856.612 -13149792.545 10 0 60538 10800.00000 0 6568795.280 22348640.112 -10383868.453 10 0 60538 11700.00000 0 6840534.756 23431333.340 -7416113.488 10 0 60538 12600.00000 0 7125280.484 24122644.509 -4304329.403 10 0 60538 13500.00000 0 7366860.005 24414483.121 -1109016.212 10 0 60538 14400.00000 0 7509578.341 24312163.907 2107808.640 10 0 60538 15300.00000 0 7500793.970 23834067.761 5283812.818 10 0 60538 16200.00000 0 7293366.187 23010776.913 8357549.956 10 0 60538 17100.00000 0 6847871.429 21883723.141 11269636.067 10 0 60538 18000.00000 0 6134496.461 20503407.608 13963879.696 10 0 60538 18900.00000 0 5134530.297 18927267.936 16388345.548 10 0 60538 19800.00000 0 3841393.613 17217281.945 18496332.970 10 0 60538 20700.00000 0 2261163.678 15437407.439 20247252.602 10 0 60538 21600.00000 0 412573.388 13650963.423 21607386.616 10 0 60538 22500.00000 0 -1673515.760 11918059.748 22550520.115 10 0 60538 23400.00000 0 -3955145.747 10293179.821 23058433.424 10 0 60538 24300.00000 0 -6380758.099 8823014.425 23121247.251 10 0 60538 25200.00000 0 -8891094.344 7544634.467 22737614.883 10 0 60538 26100.00000 0 -11421424.998 6484076.850 21914757.778 10 0 60538 27000.00000 0 -13904017.959 5655401.203 20668343.225 10 0 60538 27900.00000 0 -16270747.142 5060256.386 19022205.017 10 0 60538 28800.00000 0 -18455735.953 4687975.313 17007910.523 10 0 60538 29700.00000 0 -20397928.010 4516195.270 14664180.087 10 0 60538 30600.00000 0 -22043479.576 4511979.411 12036167.253 10 0 60538 31500.00000 0 -23347874.355 4633394.301 9174611.135 10 0 60538 32400.00000 0 -24277671.836 4831479.045 6134874.902 10 0 60538 33300.00000 0 -24811814.587 5052524.572 2975887.064 10 0 60538 34200.00000 0 -24942437.571 5240567.750 -240995.145 10 0 60538 35100.00000 0 -24675142.977 5339994.997 -3453178.768 10 0 60538 36000.00000 0 -24028726.411 5298144.326 -6598061.107 10 0 60538 36900.00000 0 -23034363.590 5067793.878 -9614263.798 10 0 60538 37800.00000 0 -21734289.973 4609428.937 -12442849.381 10 0 60538 38700.00000 0 -20180027.842 3893188.278 -15028494.620 10 0 60538 39600.00000 0 -18430235.298 2900404.006 -17320595.370 10 0 60538 40500.00000 0 -16548268.352 1624666.343 -19274279.115 10 0 60538 41400.00000 0 -14599560.008 72365.265 -20851303.285 10 0 60538 42300.00000 0 -12648928.426 -1737316.415 -22020819.898 10 0 60538 43200.00000 0 -10757929.292 -3772960.035 -22759990.271 10 0 60538 44100.00000 0 -8982365.540 -5991995.705 -23054436.864 10 0 60538 45000.00000 0 -7370060.507 -8342269.215 -22898523.092 10 0 60538 45900.00000 0 -5958988.885 -10764024.910 -22295455.840 10 0 60538 46800.00000 0 -4775843.940 -13192220.450 -21257209.312 10 0 60538 47700.00000 0 -3835100.364 -15559075.123 -19804272.779 10 0 60538 48600.00000 0 -3138610.373 -17796743.641 -17965228.555 10 0 60538 49500.00000 0 -2675747.560 -19840002.382 -15776170.047 10 0 60538 50400.00000 0 -2424089.381 -21628834.880 -13279973.061 10 0 60538 51300.00000 0 -2350606.166 -23110808.198 -10525436.389 10 0 60538 52200.00000 0 -2413303.096 -24243141.292 -7566310.214 10 0 60538 53100.00000 0 -2563242.697 -24994379.988 -4460232.947 10 0 60538 54000.00000 0 -2746859.736 -25345610.376 -1267598.552 10 0 60538 54900.00000 0 -2908468.768 -25291162.246 1949622.553 10 0 60538 55800.00000 0 -2992857.140 -24838775.863 5129085.502 10 0 60538 56700.00000 0 -2947853.611 -24009227.898 8209272.447 10 0 60538 57600.00000 0 -2726764.524 -22835434.794 11130670.697 10 0 60538 58500.00000 0 -2290575.837 -21361073.189 13836905.653 10 0 60538 59400.00000 0 -1609829.696 -19638776.498 16275808.185 10 0 60538 60300.00000 0 -666098.172 -17727983.514 18400397.745 10 0 60538 61200.00000 0 547006.284 -15692528.495 20169764.430 10 0 60538 62100.00000 0 2023325.051 -13598071.947 21549835.313 10 0 60538 63000.00000 0 3744173.057 -11509477.111 22514012.493 10 0 60538 63900.00000 0 5678883.674 -9488238.875 23043672.503 10 0 60538 64800.00000 0 7785857.410 -7590069.265 23128518.925 10 0 60538 65700.00000 0 10014072.943 -5862737.216 22766782.263 10 0 60538 66600.00000 0 12305000.415 -4344250.084 21965263.337 10 0 60538 67500.00000 0 14594840.689 -3061450.784 20739218.727 10 0 60538 68400.00000 0 16817000.864 -2029087.915 19112089.121 10 0 60538 69300.00000 0 18904706.196 -1249397.434 17115073.811 10 0 60538 70200.00000 0 20793642.373 -712213.922 14786557.142 10 0 60538 71100.00000 0 22424519.907 -395608.003 12171395.315 10 0 60538 72000.00000 0 23745454.499 -267024.843 9320074.679 10 0 60538 72900.00000 0 24714063.764 -284877.697 6287755.403 10 0 60538 73800.00000 0 25299191.423 -400531.035 3133217.070 10 0 60538 74700.00000 0 25482184.654 -560590.804 -82274.627 10 0 60538 75600.00000 0 25257668.436 -709405.513 -3296158.662 10 0 60538 76500.00000 0 24633781.463 -791672.007 -6445803.620 10 0 60538 77400.00000 0 23631860.927 -755034.301 -9469741.965 10 0 60538 78300.00000 0 22285587.031 -552563.296 -12308888.074 10 0 60538 79200.00000 0 20639621.477 -145009.525 -14907714.289 10 0 60538 80100.00000 0 18747796.313 497269.684 -17215359.728 10 0 60538 81000.00000 0 16670929.264 1392793.547 -19186647.921 10 0 60538 81900.00000 0 14474358.149 2547918.995 -20782991.225 10 0 60538 82800.00000 0 12225299.362 3956326.311 -21973162.462 10 0 60538 83700.00000 0 9990143.110 5599053.022 -22733917.312 10 0 60538 84600.00000 0 7831800.723 7445076.017 -23050454.375 10 0 60538 85500.00000 0 5807216.927 9452417.861 -22916703.559 10 0 60539 0.00000 0 3965152.639 11569730.421 -22335437.380 10 0 60539 900.00000 0 2344330.648 13738289.592 -21318203.272 10 0 60539 1800.00000 0 972023.896 15894313.314 -19885080.139 10 0 60539 2700.00000 0 -136859.114 17971507.918 -18064264.282 10 0 60539 3600.00000 0 -980153.108 19903731.891 -15891495.063 10 0 60539 4500.00000 0 -1568267.065 21627665.311 -13409333.084 10 0 60539 5400.00000 0 -1923477.842 23085372.258 -10666306.825 10 0 60539 6300.00000 0 -2078719.744 24226648.762 -7715946.159 10 0 60539 7200.00000 0 -2075924.629 25011058.472 -4615723.242 10 0 60539 8100.00000 0 -1963985.724 25409572.080 -1425922.796 10 0 60539 9000.00000 0 -1796433.749 25405743.670 1791535.181 10 0 60539 9900.00000 0 -1628925.242 24996377.033 4974296.787 10 0 60539 10800.00000 0 -1516650.144 24191656.579 8060776.195 10 0 60539 11700.00000 0 -1511768.160 23014739.812 10991335.428 10 0 60539 12600.00000 0 -1660981.371 21500830.592 13709419.999 10 0 60539 13500.00000 0 -2003344.137 19695773.446 16162629.968 10 0 60539 14400.00000 0 -2568400.911 17654228.457 18303707.642 10 0 60539 15300.00000 0 -3374728.574 15437502.750 20091425.022 10 0 60539 16200.00000 0 -4428943.099 13111127.973 21491356.182 10 0 60539 17100.00000 0 -5725211.341 10742282.789 22476521.951 10 0 60539 18000.00000 0 -7245288.213 8397165.135 23027896.394 10 0 60539 18900.00000 0 -8959078.479 6138420.637 23134766.841 10 0 60539 19800.00000 0 -10825701.325 4022731.019 22794941.403 10 0 60539 20700.00000 0 -12795015.713 2098659.998 22014800.113 10 0 60539 21600.00000 0 -14809545.947 404843.856 20809188.146 10 0 60539 22500.00000 0 -16806730.517 -1031399.661 19201151.806 10 0 60539 23400.00000 0 -18721403.771 -2194987.001 17221520.471 10 0 60539 24300.00000 0 -20488409.866 -3083470.805 14908340.135 10 0 60539 25200.00000 0 -22045242.154 -3706910.719 12306166.827 10 0 60539 26100.00000 0 -23334599.104 -4087217.067 9465230.930 10 0 60539 27000.00000 0 -24306750.108 -4256993.292 6440486.135 10 0 60539 27900.00000 0 -24921611.350 -4257924.160 3290559.442 10 0 60539 28800.00000 0 -25150442.888 -4138776.239 76621.273 10 0 60539 29700.00000 0 -24977093.209 -3953094.213 -3138803.009 10 0 60539 30600.00000 0 -24398735.946 -3756690.305 -6293056.921 10 0 60539 31500.00000 0 -23426064.661 -3605033.818 -9324587.270 10 0 60539 32400.00000 0 -22082934.595 -3550652.933 -12174163.580 10 0 60539 33300.00000 0 -20405464.071 -3640661.205 -14786056.809 10 0 60539 34200.00000 0 -18440631.717 -3914516.392 -17109152.022 10 0 60539 35100.00000 0 -16244427.733 -4402109.685 -19097971.022 10 0 60539 36000.00000 0 -13879636.955 -5122269.317 -20713582.784 10 0 60539 36900.00000 0 -11413347.691 -6081744.654 -21924382.004 10 0 60539 37800.00000 0 -8914292.214 -7274715.943 -22706719.138 10 0 60539 38700.00000 0 -6450132.072 -8682852.006 -23045368.698 10 0 60539 39600.00000 0 -4084803.593 -10275914.225 -22933826.233 10 0 60539 40500.00000 0 -1876036.059 -12012881.397 -22374428.365 10 0 60539 41400.00000 0 126852.876 -13843547.486 -21378294.123 10 0 60539 42300.00000 0 1884792.205 -15710523.864 -19965089.788 10 0 60539 43200.00000 0 3370347.152 -17551560.381 -18162623.186 10 0 60539 44100.00000 0 4568606.909 -19302086.203 -16006276.972 10 0 60539 45000.00000 0 5477535.897 -20897862.184 -13538293.768 10 0 60539 45900.00000 0 6107777.077 -22277632.346 -10806928.905 10 0 60539 46800.00000 0 6481919.231 -23385662.567 -7865489.093 10 0 60539 47700.00000 0 6633262.788 -24174059.930 -4771277.427 10 0 60539 48600.00000 0 6604139.769 -24604776.153 -1584466.666 10 0 60539 49500.00000 0 6443861.761 -24651212.365 1633076.232 10 0 60539 50400.00000 0 6206384.912 -24299359.771 4818990.799 10 0 60539 51300.00000 0 5947792.031 -23548430.591 7911625.539 10 0 60539 52200.00000 0 5723698.667 -22410955.077 10851219.314 10 0 60539 53100.00000 0 5586692.366 -20912342.627 13581039.660 10 0 60539 54000.00000 0 5583912.047 -19089927.002 16048457.517 10 0 60539 54900.00000 0 5754867.898 -16991536.459 18205939.481 10 0 60539 55800.00000 0 6129591.740 -14673648.623 20011940.603 10 0 60539 56700.00000 0 6727193.814 -12199206.236 21431682.812 10 0 60539 57600.00000 0 7554885.144 -9635183.042 22437806.220 10 0 60539 58500.00000 0 8607505.704 -7049998.725 23010882.677 10 0 60539 59400.00000 0 9867578.128 -4510887.397 23139783.240 10 0 60539 60300.00000 0 11305885.677 -2081325.794 22821893.359 10 0 60539 61200.00000 0 12882552.097 181375.081 22063171.806 10 0 60539 62100.00000 0 14548580.788 2228217.588 20878051.690 10 0 60539 63000.00000 0 16247792.108 4020317.236 19289184.124 10 0 60539 63900.00000 0 17919081.069 5530281.082 17327027.614 10 0 60539 64800.00000 0 19498904.221 6743107.852 15029288.684 10 0 60539 65700.00000 0 20923894.324 7656571.902 12440221.903 10 0 60539 66600.00000 0 22133495.163 8281073.944 9609800.192 10 0 60539 67500.00000 0 23072506.953 8638963.335 6592769.030 10 0 60539 68400.00000 0 23693435.278 8763358.710 3447600.856 10 0 60539 69300.00000 0 23958543.591 8696515.009 235368.593 10 0 60539 70200.00000 0 23841520.746 8487804.596 -2981440.486 10 0 60539 71100.00000 0 23328690.492 8191397.167 -6140147.403 10 0 60539 72000.00000 0 22419708.762 7863736.787 -9179115.936 10 0 60539 72900.00000 0 21127716.106 7560923.934 -12038973.369 10 0 60539 73800.00000 0 19478935.944 7336115.237 -14663791.781 10 0 60539 74700.00000 0 17511733.213 7237053.525 -17002204.544 10 0 60539 75600.00000 0 15275171.490 7303835.649 -19008433.916 10 0 60539 76500.00000 0 12827128.583 7567015.514 -20643207.492 10 0 60539 77400.00000 0 10232049.915 8046125.378 -21874543.672 10 0 60539 78300.00000 0 7558434.851 8748680.264 -22678389.344 10 0 60539 79200.00000 0 4876162.626 9669709.273 -23039096.385 10 0 60539 80100.00000 0 2253771.419 10791834.531 -22949727.203 10 0 60539 81000.00000 0 -244194.171 12085894.621 -22412183.517 10 0 60539 81900.00000 0 -2559655.307 13512085.702 -21437156.421 10 0 60539 82800.00000 0 -4643186.967 15021571.068 -20043899.759 10 0 60539 83700.00000 0 -6455830.796 16558489.819 -18259832.599 10 0 60539 84600.00000 0 -7970458.212 18062278.359 -16119980.165 10 0 60539 85500.00000 0 -9172628.841 19470205.250 -13666265.918 10 0 60540 0.00000 0 -10060911.153 20720011.221 -10946670.704 10 0 60540 900.00000 0 -10646655.735 21752542.863 -8014275.605 10 0 60540 1800.00000 0 -10953233.363 22514267.117 -4926212.566 10 0 60540 2700.00000 0 -11014775.246 22959563.281 -1742539.765 10 0 60540 3600.00000 0 -10874470.713 23052695.268 1474931.736 10 0 60540 4500.00000 0 -10582497.464 22769383.402 4663837.957 10 0 60540 5400.00000 0 -10193673.676 22097911.411 7762464.923 10 0 60540 6300.00000 0 -9764932.158 21039724.229 10710931.601 10 0 60540 7200.00000 0 -9352723.297 19609493.508 13452330.838 10 0 60540 8100.00000 0 -9010455.609 17834649.752 15933807.677 10 0 60540 9000.00000 0 -8786080.338 15754401.696 18107556.124 10 0 60540 9900.00000 0 -8719919.902 13418284.256 19931717.221 10 0 60540 10800.00000 0 -8842829.481 10884295.044 21371163.465 10 0 60540 11700.00000 0 -9174767.049 8216695.604 22398156.655 10 0 60540 12600.00000 0 -9723830.461 5483566.671 22992868.484 10 0 60540 13500.00000 0 -10485801.159 2754216.157 23143755.368 10 0 60540 14400.00000 0 -11444213.797 96544.294 22847781.242 10 0 60540 15300.00000 0 -12570949.871 -2425527.962 22110484.242 10 0 60540 16200.00000 0 -13827332.424 -4754463.597 20945885.447 10 0 60540 17100.00000 0 -15165678.621 -6841249.958 19376240.222 10 0 60540 18000.00000 0 -16531248.194 -8647187.795 17431635.039 10 0 60540 18900.00000 0 -17864509.263 -10145255.451 15149435.208 10 0 60540 19800.00000 0 -19103629.428 -11320991.469 12573591.553 10 0 60540 20700.00000 0 -20187089.832 -12172858.065 9753816.783 10 0 60540 21600.00000 0 -21056313.843 -12712068.961 6744645.020 10 0 60540 22500.00000 0 -21658200.149 -12961887.184 3604390.693 10 0 60540 23400.00000 0 -21947452.933 -12956420.582 394025.564 10 0 60540 24300.00000 0 -21888609.170 -12738964.345 -2824004.977 10 0 60540 25200.00000 0 -21457674.991 -12359959.433 -5987003.317 10 0 60540 26100.00000 0 -20643298.898 -11874652.903 -9033254.048 10 0 60540 27000.00000 0 -19447428.940 -11340559.577 -11903245.963 10 0 60540 27900.00000 0 -17885422.810 -10814833.795 -14540855.835 10 0 60540 28800.00000 0 -15985603.355 -10351664.539 -16894468.624 10 0 60540 29700.00000 0 -13788276.020 -9999806.675 -18918009.933 10 0 60540 30600.00000 0 -11344248.140 -9800355.548 -20571868.349 10 0 60540 31500.00000 0 -8712911.852 -9784861.745 -21823687.736 10 0 60540 32400.00000 0 -5959971.320 -9973868.100 -22649012.508 10 0 60540 33300.00000 0 -3154910.461 -10375932.521 -23031772.303 10 0 60540 34200.00000 0 -368308.504 -10987179.029 -22964596.128 10 0 60540 35100.00000 0 2330882.918 -11791396.229 -22448949.939 10 0 60540 36000.00000 0 4877986.154 -12760678.601 -21495095.529 10 0 60540 36900.00000 0 7215055.988 -13856582.443 -20121872.527 10 0 60540 37800.00000 0 9293047.388 -15031746.064 -18356309.132 10 0 60540 38700.00000 0 11073602.677 -16231904.002 -16233070.744 10 0 60540 39600.00000 0 12530384.925 -17398208.337 -13793759.057 10 0 60540 40500.00000 0 13649904.202 -18469757.409 -11086077.115 10 0 60540 41400.00000 0 14431805.130 -19386223.869 -8162878.393 10 0 60540 42300.00000 0 14888607.258 -20090470.368 -5081120.148 10 0 60540 43200.00000 0 15044912.869 -20531042.330 -1900742.838 10 0 60540 44100.00000 0 14936119.227 -20664433.206 1316501.508 10 0 60540 45000.00000 0 14606692.647 -20457027.777 4508248.461 10 0 60540 45900.00000 0 14108079.675 -19886643.251 7612724.473 10 0 60540 46800.00000 0 13496345.060 -18943605.156 10569931.299 10 0 60540 47700.00000 0 12829636.817 -17631314.685 13322789.493 10 0 60540 48600.00000 0 12165584.900 -15966285.391 15818220.282 10 0 60540 49500.00000 0 11558741.957 -13977648.859 18008146.786 10 0 60540 50400.00000 0 11058172.085 -11706150.565 19850397.385 10 0 60540 51300.00000 0 10705286.779 -9202677.552 21309496.092 10 0 60540 52200.00000 0 10532016.785 -6526378.090 22357326.976 10 0 60540 53100.00000 0 10559394.538 -3742449.594 22973661.788 10 0 60540 54000.00000 0 10796605.197 -919684.021 23146542.185 10 0 60540 54900.00000 0 11240545.357 1872130.523 22872510.176 10 0 60540 55800.00000 0 11875908.090 4564847.493 22156682.568 10 0 60540 56700.00000 0 12675791.895 7094532.785 21012667.515 10 0 60540 57600.00000 0 13602809.957 9403864.969 19462323.538 10 0 60540 58500.00000 0 14610655.771 11444267.399 17535363.815 10 0 60540 59400.00000 0 15646062.328 13177684.983 15268811.038 10 0 60540 60300.00000 0 16651075.483 14577932.121 12706310.726 10 0 60540 61200.00000 0 17565548.454 15631555.236 9897313.648 10 0 60540 62100.00000 0 18329754.311 16338172.742 6896140.683 10 0 60540 63000.00000 0 18887007.344 16710276.637 3760946.184 10 0 60540 63900.00000 0 19186182.604 16772502.192 552598.537 10 0 60540 64800.00000 0 19184026.082 16560394.730 -2666501.102 10 0 60540 65700.00000 0 18847155.803 16118724.032 -5833638.880 10 0 60540 66600.00000 0 18153666.340 15499416.728 -8887022.614 10 0 60540 67500.00000 0 17094265.619 14759193.959 -11767004.933 10 0 60540 68400.00000 0 15672892.482 13957014.941 -14417269.523 10 0 60540 69300.00000 0 13906785.673 13151436.077 -16785954.988 10 0 60540 70200.00000 0 11825998.577 12397999.399 -18826692.165 10 0 60540 71100.00000 0 9472378.091 11746763.255 -20499532.374 10 0 60540 72000.00000 0 6898049.389 11240082.172 -21771746.539 10 0 60540 72900.00000 0 4163469.880 10910732.021 -22618478.056 10 0 60540 73800.00000 0 1335134.357 10780461.546 -23023235.641 10 0 60540 74700.00000 0 -1516971.562 10859032.586 -22978216.027 10 0 60540 75600.00000 0 -4322061.870 11143789.917 -22484450.294 10 0 60540 76500.00000 0 -7011270.757 11619778.468 -21551771.513 10 0 60540 77400.00000 0 -9520288.604 12260401.836 -20198605.329 10 0 60540 78300.00000 0 -11791802.737 13028592.597 -18451588.907 10 0 60540 79200.00000 0 -13777641.194 13878442.899 -16345027.275 10 0 60540 80100.00000 0 -15440530.821 14757224.221 -13920199.440 10 0 60540 81000.00000 0 -16755398.003 15607708.859 -11224529.651 10 0 60540 81900.00000 0 -17710160.164 16370693.158 -8310641.747 10 0 60540 82800.00000 0 -18305978.008 16987614.578 -5235316.731 10 0 60540 83700.00000 0 -18556961.458 17403151.260 -2058375.306 10 0 60540 84600.00000 0 -18489345.309 17567694.269 1158491.786 10 0 60540 85500.00000 0 -18140172.598 17439588.756 4352922.142 10 0 60541 0.00000 0 -17555544.095 16987050.744 7463085.050 10 0 60541 900.00000 0 -16788509.343 16189680.036 10428868.492 10 0 60541 1800.00000 0 -15896690.128 15039508.027 13193023.476 10 0 60541 2700.00000 0 -14939735.571 13541537.247 15702250.538 10 0 60541 3600.00000 0 -13976715.932 11713751.854 17908205.079 10 0 60541 4500.00000 0 -13063562.919 9586599.219 19768405.909 10 0 60541 5400.00000 0 -12250661.926 7201964.280 21247031.526 10 0 60541 6300.00000 0 -11580694.868 4611678.566 22315591.004 10 0 60541 7200.00000 0 -11086821.684 1875624.272 22953458.579 10 0 60541 8100.00000 0 -10791274.655 -940490.245 23148263.205 10 0 60541 9000.00000 0 -10704422.979 -3767594.282 22896126.577 10 0 60541 9900.00000 0 -10824346.125 -6535858.979 22201745.303 10 0 60541 10800.00000 0 -11136934.107 -9177337.292 21078315.205 10 0 60541 11700.00000 0 -11616511.593 -11628533.360 19547298.005 10 0 60541 12600.00000 0 -12226961.598 -13832797.111 17638033.065 10 0 60541 13500.00000 0 -12923304.040 -15742446.443 15387199.375 10 0 60541 14400.00000 0 -13653665.460 -17320529.562 12838135.547 10 0 60541 15300.00000 0 -14361559.625 -18542153.968 10040028.325 10 0 60541 16200.00000 0 -14988385.004 -19395325.744 7046982.831 10 0 60541 17100.00000 0 -15476035.174 -19881262.504 3916990.473 10 0 60541 18000.00000 0 -15769512.302 -20014164.964 710813.085 10 0 60541 18900.00000 0 -15819432.635 -19820454.742 -2509195.817 10 0 60541 19800.00000 0 -15584316.368 -19337508.654 -5680309.759 10 0 60541 20700.00000 0 -15032562.469 -18611941.563 -8740663.511 10 0 60541 21600.00000 0 -14144021.772 -17697509.624 -11630477.357 10 0 60541 22500.00000 0 -12911098.276 -16652722.624 -14293245.658 10 0 60541 23400.00000 0 -11339328.660 -15538267.270 -16676864.310 10 0 60541 24300.00000 0 -9447412.355 -14414351.938 -18734672.756 10 0 60541 25200.00000 0 -7266688.342 -13338087.177 -20426388.030 10 0 60541 26100.00000 0 -4840078.916 -12361014.936 -21718910.594 10 0 60541 27000.00000 0 -2220543.830 -11526893.086 -22586984.712 10 0 60541 27900.00000 0 530890.410 -10869830.620 -23013699.426 10 0 60541 28800.00000 0 3347442.970 -10412853.502 -22990819.818 10 0 60541 29700.00000 0 6159134.950 -10166962.207 -22518942.121 10 0 60541 30600.00000 0 8895481.380 -10130720.407 -21607470.192 10 0 60541 31500.00000 0 11488205.158 -10290391.091 -20274414.731 10 0 60541 32400.00000 0 13873858.667 -10620612.592 -18546020.509 10 0 60541 33300.00000 0 15996243.213 -11085583.715 -16456230.444 10 0 60541 34200.00000 0 17808525.510 -11640705.368 -14045998.753 10 0 60541 35100.00000 0 19274963.864 -12234606.751 -11362468.433 10 0 60541 36000.00000 0 20372173.841 -12811468.105 -8458030.885 10 0 60541 36900.00000 0 21089882.988 -13313539.894 -5389287.751 10 0 60541 37800.00000 0 21431146.197 -13683750.566 -2215936.639 10 0 60541 38700.00000 0 21412016.083 -13868292.028 1000396.497 10 0 60541 39600.00000 0 21060685.637 -13819073.661 4197354.808 10 0 60541 40500.00000 0 20416142.272 -13495941.977 7313054.428 10 0 60541 41400.00000 0 19526392.323 -12868573.550 10287271.709 10 0 60541 42300.00000 0 18446332.320 -11917963.034 13062591.658 10 0 60541 43200.00000 0 17235357.235 -10637445.301 15585496.755 10 0 60541 44100.00000 0 15954805.913 -9033210.219 17807376.915 10 0 60541 45000.00000 0 14665349.786 -7124289.450 19685443.209 10 0 60541 45900.00000 0 13424432.476 -4942016.163 21183530.021 10 0 60541 46800.00000 0 12283865.206 -2528979.668 22272772.427 10 0 60541 47700.00000 0 11287676.140 62482.780 22932147.740 10 0 60541 48600.00000 0 10470301.154 2772196.445 23148872.410 10 0 60541 49500.00000 0 9855189.684 5534385.316 22918647.643 10 0 60541 50400.00000 0 9453882.582 8280144.465 22245749.323 10 0 60541 51300.00000 0 9265599.985 10940049.438 21142960.089 10 0 60541 52200.00000 0 9277356.770 13446797.717 19631343.716 10 0 60541 53100.00000 0 9464601.931 15737775.407 17739864.345 10 0 60541 54000.00000 0 9792356.859 17757444.684 15504855.630 10 0 60541 54900.00000 0 10216807.024 19459453.961 12969347.426 10 0 60541 55800.00000 0 10687282.432 20808383.146 10182260.411 10 0 60541 56700.00000 0 11148545.615 21781050.550 7197481.730 10 0 60541 57600.00000 0 11543292.233 22367325.402 4072837.464 10 0 60541 58500.00000 0 11814759.493 22570409.988 868980.391 10 0 60541 59400.00000 0 11909331.932 22406577.372 -2351786.202 10 0 60541 60300.00000 0 11779033.169 21904373.575 -5526725.807 10 0 60541 61200.00000 0 11383796.022 21103316.004 -8593902.688 10 0 60541 62100.00000 0 10693412.030 20052141.803 -11493407.179 10 0 60541 63000.00000 0 9689074.511 18806679.536 -14168546.557 10 0 60541 63900.00000 0 8364446.338 17427434.411 -16566976.032 10 0 60541 64800.00000 0 6726203.904 15976990.042 -18641745.480 10 0 60541 65700.00000 0 4794031.346 14517338.120 -20352239.279 10 0 60541 66600.00000 0 2600062.967 13107250.696 -21664988.877 10 0 60541 67500.00000 0 187795.820 11799808.044 -22554340.687 10 0 60541 68400.00000 0 -2389482.562 10640188.193 -23002965.174 10 0 60541 69300.00000 0 -5070685.151 9663812.728 -23002196.646 10 0 60541 70200.00000 0 -7789250.991 8894927.685 -22552197.114 10 0 60541 71100.00000 0 -10475706.885 8345679.213 -21661941.523 10 0 60541 72000.00000 0 -13060356.697 8015722.039 -20349025.588 10 0 60541 72900.00000 0 -15475984.754 7892375.477 -18639301.276 10 0 60541 73800.00000 0 -17660459.526 7951318.053 -16566348.642 10 0 60541 74700.00000 0 -19559128.540 8157788.664 -14170796.057 10 0 60541 75600.00000 0 -21126904.894 8468240.589 -11499503.959 10 0 60541 76500.00000 0 -22329959.372 8832375.631 -8604629.810 10 0 60541 77400.00000 0 -23146949.316 9195469.888 -5542594.231 10 0 60541 78300.00000 0 -23569735.437 9500890.856 -2372969.908 10 0 60541 79200.00000 0 -23603559.569 9692698.127 842683.958 10 0 60541 80100.00000 0 -23266679.150 9718217.241 4042018.234 10 0 60541 81000.00000 0 -22589476.886 9530478.135 7163097.967 10 0 60541 81900.00000 0 -21613085.663 9090416.107 10145590.986 10 0 60541 82800.00000 0 -20387588.461 8368743.817 12931918.747 10 0 60541 83700.00000 0 -18969869.997 7347417.038 15468348.530 10 0 60541 84600.00000 0 -17421210.408 6020634.070 17706007.681 10 0 60541 85500.00000 0 -15804721.079 4395328.080 19601802.424 99